Miscellaneous Local Product
Issued by NWS Hastings, NE

Home | Current Version | Previous Version | Graphics & Text | Print | Product List | Glossary On
Versions: 1 2 3 4 5 6 7 8 9 10 11 12 13 14 15 16 17 18 19 20 21 22 23 24 25 26 27 28 29 30 31 32 33 34 35 36 37 38 39 40 41 42 43 44 45 46 47 48 49 50
000
AXUS43 KGID 031302
MISGRI

GID CWA HOURLY WEATHER ROUNDUP
NATIONAL WEATHER SERVICE HASTINGS NE
800 AM CDT FRI JUL 03 2015

NOTE: "FAIR" INDICATES FEW OR NO CLOUDS BELOW 12,000 FEET WITH NO
SIGNIFICANT WEATHER AND/OR OBSTRUCTIONS TO VISIBILITY.

...SOUTH CENTRAL NEBRASKA...

CITY           SKY/WX    TMP DP  RH WIND       PRES   REMARKS
GRAND ISLAND   CLOUDY    65  62  90 N7        30.05R FOG
HASTINGS       CLOUDY    66  63  90 NE8       30.04R FOG
KEARNEY        CLOUDY    64  57  77 N7        30.05S
ORD            CLOUDY    63  60  90 CALM      30.04S
YORK           CLOUDY    64  64 100 NE6       30.03S FOG
AURORA         CLOUDY    64  64 100 NE8       30.03R FOG
LEXINGTON      CLOUDY    64  64  97 N3        30.07R FOG
HOLDREGE       CLOUDY    62  61  97 N7        30.06R FOG
HEBRON         CLOUDY    66  64  93 NE8       30.01R FOG

...NEBRASKA PANHANDLE...

CITY           SKY/WX    TMP DP  RH WIND       PRES   REMARKS
CHADRON        SUNNY     60  57  89 CALM      30.11R
ALLIANCE       MOSUNNY   61  59  93 W6        30.13R
SCOTTSBLUFF    MOSUNNY   66  61  84 CALM      30.14R
SIDNEY         PTSUNNY   63  61  93 NW3       30.16S

...WESTERN AND NORTH CENTRAL NEBRASKA...

CITY           SKY/WX    TMP DP  RH WIND       PRES   REMARKS
VALENTINE      SUNNY     61  59  93 W3        30.07R
AINSWORTH      SUNNY     62  62 100 CALM      30.07S
ONEILL         FOG       62  61  99 SW5       30.05S VSB<1/4
BROKEN BOW     PTSUNNY   65  61  87 NW5       30.06S
IMPERIAL       MOSUNNY   66  58  75 N3        30.10S
NORTH PLATTE   SUNNY     62  58  86 CALM      30.09R
MCCOOK         SUNNY     63  60  90 SW3       30.07R FOG

...EASTERN NEBRASKA...

CITY           SKY/WX    TMP DP  RH WIND       PRES   REMARKS
NORFOLK        CLOUDY    65  63  93 CALM      30.02S FOG
SO SIOUX CITY  MOSUNNY   57  55  93 CALM      30.02S
TEKAMAH        SUNNY     60  58  92 N5        30.02R
COLUMBUS       CLOUDY    63  57  82 CALM      30.03S
ALBION         CLOUDY    64  59  82 CALM      30.04R
OMAHA EPPLEY   SUNNY     60  57  89 N5        30.01S
OFFUTT AFB     SUNNY     62  56  80 CALM      30.00S
MILLARD        SUNNY     62  56  81 CALM      30.01S
LINCOLN        CLOUDY    64  58  80 NE7       30.02R
NEBRASKA CITY  SUNNY     62  56  83 NE6       30.01R
BEATRICE       CLOUDY    63  60  89 E6        30.00S
FALLS CITY     CLOUDY    65  60  84 NE6       29.98R

...NORTHERN KANSAS...

CITY           SKY/WX    TMP DP  RH WIND       PRES   REMARKS
GOODLAND       PTSUNNY   65  60  84 NE5       30.11F
HILL CITY      CLOUDY    66  64  93 VRB5      30.06S FOG
NORTON         FOG       61  57  88 N5        30.07R VSB 0
PHILLIPSBURG   SUNNY     68  64  88 N7        30.05S
SMITH CENTER   MOSUNNY   64  63  94 NW9       30.04R FOG
HAYS           CLOUDY    64  57  77 N8        30.04R
RUSSELL        CLOUDY    64  63  96 N9        30.01S FOG
CONCORDIA      CLOUDY    67  65  93 NE8       30.00R
SALINA         CLOUDY    71  66  84 N10       29.97R
TOPEKA         LGT RAIN  67  65  93 NE6       29.95R



USA.gov is the U.S. government's official web portal to all federal, state and local government web resources and services.